Regional Weather Roundup
Issued by NWS

Home | Current Version | Previous Version | Graphics & Text | Print | Product List | Glossary On
Versions: 1 2 3 4 5 6 7 8 9 10 11 12 13 14 15 16 17 18 19 20 21 22 23 24 25 26 27 28 29 30 31 32 33 34 35 36 37 38 39 40 41 42 43 44 45 46 47 48 49 50
419
ASUS43 KMKX 150059
RWRWI

WISCONSIN REGIONAL WEATHER ROUNDUP
NATIONAL WEATHER SERVICE MILWAUKEE/SULLIVAN WI
700 PM CST THU DEC 14 2017

NOTE: "FAIR" INDICATES FEW OR NO CLOUDS BELOW 12,000 FEET WITH NO
SIGNIFICANT WEATHER AND/OR OBSTRUCTIONS TO VISIBILITY.

WIZ001-002-006>008-014>016-023>028-150200-
NORTHWEST WISCONSIN

CITY           SKY/WX    TMP DP  RH WIND       PRES   REMARKS
SUPERIOR ARPT  CLOUDY    19  14  80 SW6       29.97F WCI  11
ASHLAND        CLOUDY    17  12  80 SW8       29.95F WCI   7
HAYWARD        LGT SNOW  17  13  84 W3        29.94F FOG
SIREN          CLOUDY    19  13  77 W6        29.98F WCI  11
CUMBERLAND     FLURRIES  19  14  79 W9        29.96S WCI   9
RICE LAKE      CLOUDY    20  16  85 CALM      29.98F
CHETEK         CLOUDY    19  15  82 W6        29.97F WCI  11
LADYSMITH      FLURRIES  19  15  84 W7        29.96F WCI  10
EAU CLAIRE     LGT SNOW  20  17  88 W8        29.98F FOG     WCI  10
MENOMONIE      FLURRIES  22  16  78 W14       30.00S WCI   9
NEW RICHMOND   LGT SNOW  20  15  80 NW9       30.00S WCI  10
OSCEOLA        FLURRIES  21  15  78 W7        30.03F WCI  13
$$

WIZ003>005-009-010-017-018-150200-
NORTH CENTRAL WISCONSIN

CITY           SKY/WX    TMP DP  RH WIND       PRES   REMARKS
MANITOWISH WTR LGT SNOW  15  15 100 CALM      29.88F
ARBOR VITAE    LGT SNOW  17  15  90 SW3       29.88S
WOODRUFF       LGT SNOW  17  15  90 SW3       29.88S
RHINELANDER    CLOUDY    18  15  88 W10       29.89F WCI   6
EAGLE RIVER    LGT SNOW  15  11  85 CALM      29.88S
LAND O LAKES   LGT SNOW  15  12  88 CALM      29.89F
PHILLIPS       LGT SNOW  17  15  91 W3        29.91S
TOMAHAWK       LGT SNOW  17  14  86 CALM      29.91F
MEDFORD        LGT SNOW  18  15  88 W6        29.92F WCI  10
MERRILL        LGT SNOW  19  16  89 SW3       29.94F
$$

WIZ029-030-035-036-043>047-150200-
CENTRAL WISCONSIN

CITY           SKY/WX    TMP DP  RH WIND       PRES   REMARKS
WAUSAU         FLURRIES  19  15  84 SW6       29.94S WCI  11
MOSINEE        CLOUDY    19  16  86 SW5       29.96S WCI  13
MARSHFIELD     LGT SNOW  20  15  81 SW6       29.94F WCI  12
STEVENS POINT  CLOUDY    19  14  80 SW3       29.98S
WAUPACA        CLOUDY    23  16  73 CALM      30.00R
WAUTOMA        CLOUDY    21  13  71 SW3       30.01S
WISC RAPIDS    CLOUDY    22  11  62 SW7       29.99S WCI  13
CAMP DOUGLAS   CLOUDY    23  12  63 SW3       30.00S
$$

WIZ011>013-019>022-031-037>040-048>050-150200-
NORTHEAST WISCONSIN

CITY           SKY/WX    TMP DP  RH WIND       PRES   REMARKS
ANTIGO         LGT SNOW  17  14  90 W6        29.92F WCI   8
SHAWANO        CLOUDY    23  16  76 SW5       29.98S WCI  17
OCONTO         CLOUDY    21  15  80 SW3       30.00R
STURGEON BAY   FLURRIES  19  16  88 SW6       29.99S WCI  11
GREEN BAY      CLOUDY    21  13  71 SW3       30.00S
MANITOWOC      FLURRIES  18  11  74 SW8       30.03R WCI   8
APPLETON       CLOUDY    21  10  63 SW6       29.98S WCI  14
CLINTONVILLE   CLOUDY    21  14  73 CALM      29.99S
OSHKOSH        CLOUDY    21  14  74 S7        30.00S WCI  12
$$

WIZ032>034-041-042-053>061-150200-
SOUTHWEST WISCONSIN

CITY           SKY/WX    TMP DP  RH WIND       PRES   REMARKS
LA CROSSE      CLOUDY    26  17  68 W9        30.02R WCI  17
SPARTA         CLOUDY    24  14  66 CALM      30.01S
VIROQUA        CLOUDY    24  18  78 SW7       29.97F WCI  15
BOSCOBEL       CLOUDY    26  15  63 SW3       30.04S
PRAIRIE DU CHI CLOUDY    27  15  58 SW7       30.04S WCI  20
PLATTEVILLE    CLOUDY    24  16  69 SW7       30.03F WCI  16
$$

WIZ056-057-062-063-064-067-068-150200-
SOUTH CENTRAL WISCONSIN

CITY           SKY/WX    TMP DP  RH WIND       PRES   REMARKS
REEDSBURG      CLOUDY    22  13  66 S3        30.01S
BARABOO/DELLS  CLOUDY    22  13  66 S3        30.01S
LONE ROCK      NOT AVBL
MINERAL POINT  CLOUDY    25  16  68 SW7       30.00F WCI  17
MADISON        CLOUDY    23  12  62 CALM      30.03S
MIDDLETON      CLOUDY    25  14  63 CALM      30.02F
WATERTOWN      CLOUDY    18  14  86 CALM      30.03S
MONROE         MOCLDY    19  10  68 SW7       30.02F WCI  10
JANESVILLE     PTCLDY    19  10  68 W6        30.04F WCI  11
$$

WIZ051-052-058>065-066-070>072-150200-
SOUTHEAST WISCONSIN

CITY           SKY/WX    TMP DP  RH WIND       PRES   REMARKS
MILWAUKEE      PTCLDY    21  11  65 CALM      30.05F
WAUKESHA       CLOUDY    18   9  68 S3        30.05S
MILWAUKEE/TIMM MOCLDY    14   9  79 CALM      30.06S
RACINE         CLEAR     14   8  77 CALM      30.07F
BURLINGTON     CLEAR     13  10  87 CALM      30.05F
KENOSHA        PTCLDY    17   7  64 CALM      30.05F
FOND DU LAC    CLOUDY    21  12  68 S7        30.01F WCI  12
SHEBOYGAN      CLOUDY    13   9  84 S3        30.03R
WEST BEND      MOCLDY    14  10  85 SW3       30.03S FOG
JUNEAU         CLOUDY    18  11  75 S3        30.03S
$$

LSZ147-162-150200-
LAKE SUPERIOR

STATION/POSITION TIME  TEMP    WIND        PRES    WAVE
                       AIR SEA DIR/SP/G            HT/PER
                 (UTC) (F)     (DEG/KT/KT) (MB)    (FT/S)
DEVILS ISLAND    0000   22     260/ 16/ 20 1014.7F
SAXON HARBOR     0030   19                 1013.9F
$$

LMZ867-665-643>646-150200-
LAKE MICHIGAN

STATION/POSITION TIME  TEMP    WIND        PRES    WAVE
                       AIR SEA DIR/SP/G            HT/PER
                 (UTC) (F)     (DEG/KT/KT) (MB)    (FT/S)
NORTHPORT PIER   0040   22      CALM  / 15 1014.9F
KEWAUNEE LAKESHO 0030   19     240/  4/  7 1015.4S
SHEBOYGAN LAKESH 0000   20     240/  8/ 10 1018.1S
PORT WASHINGTON  0040   18     260/  4/  6 1018.6R
MILWAUKEE LAKESH 0030   23     270/  6/  7   N/A
KENOSHA   LAKESH 0000   22     290/  4/  5 1018.3
$$

TC  - TEMPERATURE IN CELSIUS
VSB - VISIBILITY IN STATUTE MILES
WCI - WIND CHILL INDEX
HX  - HEAT INDEX





USA.gov is the U.S. government's official web portal to all federal, state and local government web resources and services.